Weather WX

World > North America > United States > Minnesota

Edgerton, Minnesota Regional Weather

Lat: 43.87N, Lon: 96.13W
Wx Zone: MNZ097
Warning FLW WEATHER ALERT - (More Info. Click Here) Warning
Feedback

Edgerton, MN Regional Weather

Expires:201906170100;;186091
ASUS43 KMPX 170010
RWRMN 
WEATHER ROUNDUP FOR MINNESOTA
NATIONAL WEATHER SERVICE TWIN CITIES/CHANHASSEN MN
700 PM CDT SUN JUN 16 2019


NOTE: "FAIR" INDICATES FEW OR NO CLOUDS BELOW 12,000 FEET WITH NO
SIGNIFICANT WEATHER AND/OR OBSTRUCTIONS TO VISIBILITY. N/A MEANS
CURRENT SKY AND/OR WEATHER CONDITIONS ARE NOT AVAILABLE.


MNZ071>073-080-081-089-090-097-098-170100-
   Southwest Minnesota   
  
CITY           SKY/WX    TMP DP  RH WIND       PRES   REMARKS
MONTEVIDEO     SUNNY     79  48  34 N9        29.86S                  
GRANITE FALLS  MOSUNNY   80  57  44 NW12      29.87R                  
CANBY          SUNNY     78  54  42 W9        29.87S                  
MARSHALL       MOSUNNY   79  53  40 N10       29.86S                  
REDWOOD FALLS  SUNNY     77  56  48 N6        29.84S                  
OLIVIA         CLOUDY    77  57  50 S5        29.85S                  
PIPESTONE      MOSUNNY   79  55  44 N6        29.89R                  
WINDOM         MOSUNNY   79  55  44 NW6       29.86S                  
WORTHINGTON    SUNNY     77  52  41 NW9       29.89                   
JACKSON        SUNNY     77  57  50 NE9       29.88S                  
TRACY          MOSUNNY   80  52  37 NW9G17    29.86S                  
$$

SKY/WX - Weather  TMP - Temperature  DP - Dew Point  RH - Relative Humidity
WIND - Wind Direction/Speed PRES - Barometric Pressure VSB - Visibility
WCI - Wind Chill Index E13G22 Wind - East Wind 13 mph/Gusts of 22 mph